Location: Pasadena-CA
(34.1440°N, 118.1100°W)
Time: 02:54:40
(UTC-08:00)

Tiangong - Visible Passes

Search period start: 26 January 2022 00:00
Search period end: 05 February 2022 00:00
Orbit: 382 x 386 km, 41.5° (Epoch: 26 January)

Date Brightness Start Highest point End Pass type
(mag) Time Alt. Az. Time Alt. Az. Time Alt. Az.
26 Jan 1.9 19:00:07 10° WSW 19:02:41 48° WNW 19:02:41 48° WNW visible
27 Jan 1.1 18:00:20 10° WSW 18:03:30 76° SSE 18:05:56 16° ENE visible
27 Jan 4.4 19:37:46 10° WNW 19:38:09 12° WNW 19:38:09 12° WNW visible
28 Jan 2.1 18:37:37 10° W 18:40:36 36° NNW 18:41:20 31° NNE visible
29 Jan 3.6 19:15:21 10° WNW 19:16:40 18° NW 19:16:40 18° NW visible
30 Jan 2.6 18:15:09 10° WNW 18:17:54 26° NNW 18:19:45 16° NE visible
31 Jan 3.0 18:52:46 10° NW 18:55:00 20° N 18:55:00 20° N visible
01 Feb 2.8 17:52:35 10° WNW 17:55:09 22° N 17:57:44 10° NE visible
01 Feb 4.2 19:29:52 10° NW 19:30:13 12° NW 19:30:13 12° NW visible
02 Feb 2.7 18:29:56 10° NW 18:32:28 21° N 18:33:15 20° NNE visible
03 Feb 2.9 19:06:45 10° NW 19:08:30 24° NNW 19:08:30 24° NNW visible
04 Feb 2.5 18:06:52 10° NW 18:09:34 25° N 18:11:35 14° ENE visible
04 Feb 4.4 19:43:28 10° WNW 19:43:48 12° WNW 19:43:48 12° WNW visible
